Location: La B�doule
(43.2468°N, 5.5934°E)
Time: 19:50:21
(UTC+00:00)

Cosmos 2151 - Pass Details

Date: 07 June 2020
Orbit: 580 x 602 km, 82.5° (Epoch: 13 July)

Event Time Altitude Azimuth Distance (km) Brightness Sun altitude
Exits shadow 03:17:07 - 225° (SW) 2,062 5.1 -6.8°
Reaches altitude 10° 03:17:29 10° 227° (SW) 1,933 4.9 -6.7°
Maximum altitude 03:21:09 27° 286° (WNW) 1,161 4.2 -6.2°
Drops below altitude 10° 03:24:51 10° 345° (NNW) 1,953 6.0 -5.7°
Sets 03:27:21 0° 358° (N) 2,862 7.0 -5.4°
